TOM443 LUKK-LATI

Flight info

Callsign TOM443
Flight time N/A
Altitude 34000
Route LIPTA2V LIPTA DCT ASKUT DCT UTOKI DCT NAVOD DCT BIZUK DCT SKJ DCT MAVAR DCT ODRAS ODRAS3N
Aircraft B738/M-SDGRWY/L

Departure

Time 2026-04-28 13:28
Airport Chişinău International Airport (LUKK)

Arrival

Time N/A
Airport Tirana International Airport Mother Teresa (LATI)
Time Latitude Longitude Altitude Speed Heading
2026-04-28 12:23 46.93408 28.93238 332 ft 0 kts 186°
2026-04-28 13:04 46.93409 28.93239 335 ft 2 kts 186°
2026-04-28 13:05 46.93432 28.93236 331 ft 4 kts 142°
2026-04-28 13:05 46.93445 28.93206 331 ft 4 kts 100°
2026-04-28 13:05 46.93446 28.93191 332 ft 3 kts 96°
2026-04-28 13:21 46.93445 28.93216 329 ft 3 kts 95°
2026-04-28 13:21 46.93443 28.93249 330 ft 3 kts 95°
2026-04-28 13:21 46.93440 28.93285 335 ft 7 kts 95°
2026-04-28 13:22 46.93435 28.93363 339 ft 8 kts 98°
2026-04-28 13:22 46.93427 28.93446 336 ft 8 kts 98°
2026-04-28 13:22 46.93401 28.93480 350 ft 1 kts 174°
2026-04-28 13:22 46.93400 28.93480 350 ft 0 kts 174°
2026-04-28 13:23 46.93398 28.93481 345 ft 3 kts 175°
2026-04-28 13:23 46.93330 28.93474 345 ft 13 kts 186°
2026-04-28 13:23 46.93256 28.93463 344 ft 0 kts 186°
2026-04-28 13:27 46.93243 28.93460 352 ft 8 kts 186°
2026-04-28 13:27 46.93178 28.93453 352 ft 9 kts 172°
2026-04-28 13:27 46.93138 28.93629 359 ft 55 kts 97°
2026-04-28 13:28 46.93042 28.94752 392 ft 162 kts 97°
2026-04-28 13:28 46.92858 28.96736 671 ft 221 kts 96°
2026-04-28 13:28 46.92625 28.98965 826 ft 226 kts 99°
2026-04-28 13:28 46.92054 29.01160 1054 ft 235 kts 121°
2026-04-28 13:29 46.90886 29.02720 1507 ft 232 kts 156°
2026-04-28 13:29 46.89316 29.03107 1549 ft 226 kts 187°
2026-04-28 13:29 46.87768 29.02473 1660 ft 254 kts 208°
2026-04-28 13:29 46.86102 29.01012 1905 ft 298 kts 218°